Hors Challenge

Le Trail De La Strange à Hollange (4.00 km)

samedi 13 avril 2019

Vous pouvez trouver Le classement original sur : http://www.hollangevtt.be/trail/index_trail.html
 
LE TRAIL DE LA STRANGE - HOLLANGE
DISTANCE : 4.02 km
samedi 13 avril 2019
 
Place dos NOM Catégorie Pl/cat temps temps/km Vitesse
01:00:00              
1 28 ENGLEBERT HUGO HOMME 1 00:24:21 06:04 9.90
2 7 DABE WILLIAM HOMME 2 00:27:33 06:51 8.75
3 26 NOISET ISALINE DAME 1 00:29:43 07:24 8.11
4 31 SCHMIT VALENTIN HOMME 3 00:29:49 07:25 8.08
5 21 PORRINI NORA DAME 2 00:32:20 08:03 7.46
6 29 ENGLEBERT LEA DAME 3 00:33:55 08:27 7.11
7 33 JOUSTEN CELINE DAME 4 00:34:12 08:31 7.05
8 32 SCHMIT MICKAEL HOMME 4 00:34:16 08:32 7.03
9 2 BERTHOLET EDWARD HOMME 5 00:34:22 08:33 7.01
10 12 PENOY LOIC HOMME 6 00:34:27 08:34 7.00
11 15 THIRY LEO HOMME 7 00:34:34 08:36 6.97
12 9 DUCHENE MATHIEU HOMME 8 00:35:27 08:49 6.80
13 25 STORDER ELISABETH DAME 5 00:37:08 09:15 6.49
14 20 TALBOT ROBIN HOMME 9 00:37:14 09:16 6.47
15 3 BERTHOLET VICTORIA DAME 6 00:38:02 09:28 6.34
16 2 BERTHOLET EDWARD HOMME 10 00:38:06 09:29 6.33
17 4 BURNOTTE KATHELEEN DAME 7 00:38:10 09:30 6.32
18 10 GOMEZ GAETAN HOMME 11 00:38:38 09:37 6.24
19 34 VIESLET FANNY DAME 8 00:39:35 09:51 6.09
20 8 DENEYER KIMBERLEY DAME 9 00:40:31 10:05 5.95
21 11 PENOY LIAM HOMME 12 00:40:37 10:07 5.94
22 22 PORRINI ENZO HOMME 13 00:41:21 10:18 5.83
23 24 SION NATHALIE DAME 10 00:46:49 11:39 5.15
24 17 THIRY THALIA DAME 11 00:46:53 11:40 5.14
25 19 TALBOT BENJAMIN HOMME 14 00:46:57 11:41 5.13
26 18 TALBOT JULIETTE DAME 12 00:47:02 11:42 5.13
27 30 DEFAT EMILIE DAME 13 00:47:09 11:44 5.11
28 27 HUSQUET EMILINE DAME 14 00:54:12 13:29 4.45
29 23 BROQUELAIRE BRIGITTE DAME 15 00:56:41 14:06 4.25
30 36 DESMONS FLORENCE DAME 16 00:57:07 14:13 4.22
31 37 MOINET MARIE-LISE DAME 17 00:57:12 14:14 4.21